CZ-6A DEB, 58202

Orbit data source: Space-Track

CZ-6A DEB, 58202 is space debris in SSO originally from a launch on Tue, 31 Oct 2023 UTC launched from the Taiyaun Space Center, China (TSC). Debris objects in space refer to the collection of defunct objects orbiting the Earth. Examples of debris include non-operational satellites, rocket bodies, and fragments generated from explosions, collisions, or faulty payload assembly.

Loading next visibility...
Identifier
58202, 2023-168D
Orbit
SSO
Last TLE update
13 hours ago
Origin
Manufacturer
SAST
Mission
Spacecraft
Bus & Motor
Unknown
Mass
~50 kg wet, ~50 kg dry
Launch date (UTC)
2023-10-31 (2 years ago)
Launch vehicle
Unknown
Launch site
Taiyaun Space Center, China (TSC)
Object type
Payload
Rocket body
Debris
Shape & HBR
Cone, 0.5 m
Radar Cross Section
0.159 m², Large (>1 m²)

Expand to show TLE details & history

TLE from 13 hours ago
0 CZ-6A DEB
1 58202U 23168D   25187.62160409  .00014072  00000-0  80670-3 0  9996
2 58202  97.8022 204.3061 0003823  58.6845 301.4759 15.12698245 91849
Epoch: 2025-07-06T14:55Z
TLE epoch observation values (Epoch: 2025-07-06T14:55:06.593Z)
Latitude
-0.00001°
Longitude
55.68597°
Altitude
529.666 km
Speed
7.599 km/s
True Right ascension
13h 37m 13s
True Declination
0° 00' 00"
Sunlit
Object was in daylight at epoch
Visualization orbit readout
Latitude
-31.8183°
Longitude
61.07118°
Altitude
539.902 km
Speed
7.591 km/s
Apparent Right ascension
10h 21m 59s
Apparent Declination
-73° 08' 36"
Sunlit
Object is in partial shadow
Visualization observer readout
Local Sidereal Time
15:29:37
Azimuth
199.996° SSW
Elevation
-34.313°
Doppler factor
1
Orbital elements
Apogee altitude
527.607 km
Perigee altitude
522.329 km
Semi-major axis
6,903.105 km
Eccentricity
0.00038
Inclination
97.8022°
RAAN
204.3061°
Arg. of periapsis
58.6845°
True anomaly
Unknown
Mean anomaly
301.4759°
Eccentric anomaly
Unknown
Mean motion
3.78422 °/min
Orbital period
95.13 mins
BSTAR
0.0008067
Loading maneuver chart data...
Loading SW <> Apogee altitude chart data...
Loading historical data...
Loading historical data...
Loading historical data...
Loading historical data...
Loading historical data...
Loading historical data...
Loading historical data...
Other satellites on launch #168 in the year 2023 (2023-10-31 UTC)

CZ-6A DEB Visibility forecast

Observer location: undefined°, undefined°

Span
Click to sort rows by Start time (UTC) header in descending order
Start Az.
Max El. time (UTC)
Max El. Az.
Max El.
End time (UTC)
End Az.
6 mins2025-07-07 13:42:40.320Z26.417° NE2025-07-07 13:45:40.320Z95.929° ESE37.368°2025-07-07 13:48:40.320Z172.8° S
4 mins2025-07-08 00:25:40.320Z94.986° ESE2025-07-08 00:26:40.320Z70.875° E22.034°2025-07-08 00:29:40.320Z16.427° NNE
4 mins2025-07-08 01:59:40.320Z237.335° WSW2025-07-08 02:00:40.320Z258.916° W19.934°2025-07-08 02:03:40.320Z313.98° NW
|